Regional Weather Roundup
Issued by NWS

Home | Current Version | Previous Version | Text Only | Print | Product List | Glossary Off
Versions: 1 2 3 4 5 6 7 8 9 10 11 12 13 14 15 16 17 18 19 20 21 22 23 24 25 26 27 28 29 30 31 32 33 34 35 36 37 38 39 40 41 42 43 44 45 46 47 48 49 50

000
ASUS43 KDTX 210910
RWRMI
MICHIGAN HOURLY REGIONAL WEATHER ROUNDUP
NATIONAL WEATHER SERVICE DETROIT/PONTIAC MI
ISSUED BY NATIONAL WEATHER SERVICE GRAND RAPIDS MI
500 AM EDT MON AUG 21 2017

NOTE: "FAIR" INDICATES FEW OR NO CLOUDS BELOW 12,000 FEET WITH NO
SIGNIFICANT WEATHER AND/OR OBSTRUCTION TO VISIBILITY.

MIZ047>049-052>055-059>063-066>070-074>076-081>083-211000-
SOUTHEAST LOWER MICHIGAN

CITY           SKY/WX    TMP DP  RH WIND       PRES   REMARKS
ADRIAN         CLOUDY    66  65  96 CALM      30.10F FOG
ALMA           CLOUDY    65  62  89 S3        30.06F
ANN ARBOR      FOG       61  61 100 CALM      30.09S VSB 1/4
BAD AXE        PTCLDY    66  62  87 SW3       30.08S
DETROIT CITY   PTCLDY    70  66  87 CALM      30.09S
DETROIT        CLOUDY    71  69  93 CALM      30.09F
FLINT          CLOUDY    66  63  90 CALM      30.08F
GROSSE ILE     CLOUDY    70  69  96 CALM      30.08S
HILLSDALE      CLOUDY    66  63  88 CALM      30.10S
HOWELL         CLOUDY    67  65  93 CALM      30.09F

CITY           SKY/WX    TMP DP  RH WIND       PRES   REMARKS
JACKSON        CLOUDY    68  64  87 CALM      30.08F
LANSING        CLOUDY    69  63  81 CALM      30.07F
MASON          CLOUDY    68  64  85 SE7       30.08F
MONROE         CLOUDY    67  67  98 CALM      30.08S FOG
MT. CLEMENS    CLOUDY    65  65 100 CALM      30.07F
PONTIAC        CLOUDY    66  65  96 CALM      30.08F
PORT HOPE        N/A     68  62  81 SW3       30.05S
PORT HURON     FOG       63  61  94 CALM      30.09F VSB 1/2
TRI CITIES     CLOUDY    68  65  90 SW5       30.06F
YPSILANTI      CLOUDY    66  66 100 CALM      30.09F
$$
MIZ043>046-050>051-056>058-064>065-071>073-077>080-211000-
SOUTHWEST LOWER MICHIGAN

CITY           SKY/WX    TMP DP  RH WIND       PRES   REMARKS
BATTLE CREEK   CLOUDY    70  65  84 S7        30.07F
BENTON HARBOR  PTCLDY    73  64  73 SE5       30.04F
BIG RAPIDS     CLEAR     60  58  94 CALM      30.05F FOG
COLDWATER      MOCLDY    69  67  94 SE5       30.08F
HOLLAND        CLOUDY    70  65  84 CALM      30.05F
GRAND RAPIDS   CLOUDY    69  66  90 S3        30.05F
KALAMAZOO      CLOUDY    71  63  75 S6        30.07F
MARSHALL       CLOUDY    68  66  95 CALM      30.07F
MOUNT PLEASANT CLOUDY    66  63  92 CALM      30.04F
MUSKEGON       CLEAR     68  65  90 CALM      30.05S
STURGIS        PTCLDY    69  65  89 S3        30.07S
$$
MIZ016>042-211000-
NORTHERN LOWER MICHIGAN

CITY           SKY/WX    TMP DP  RH WIND       PRES   REMARKS
ALPENA         MOCLDY    69  63  81 SW5       30.03S
BEAVER ISLAND  FOG       66  66  99 CALM      30.00F VSB 3/4
BELLAIRE       CLOUDY    63  61  92 CALM      30.01F
CADILLAC       CLEAR     64  60  86 CALM      30.05F
CHARLEVOIX     CLEAR     71  67  88 SW3       30.03F
GAYLORD        CLEAR     65  61  87 W7        30.03F
HOUGHTON LAKE  PTCLDY    62  60  93 SW3       30.06F
MANISTEE       CLEAR     62  61  96 CALM      30.02F
OSCODA         CLOUDY    67  60  80 SW5       30.04F
PELLSTON       CLOUDY    71  67  87 W6        30.01S
TRAVERSE CITY  CLEAR     69  62  78 CALM      29.99F
LUDINGTON      CLEAR     63  61  93 CALM      30.03R
$$
MIZ007>008-015-211000-
EASTERN UPPER MICHIGAN

CITY           SKY/WX    TMP DP  RH WIND       PRES   REMARKS
KINROSS        CLEAR     66  65  96 W5        30.00S
MACKINAC ISLAN CLOUDY    67  67 100 SW6       30.00F FOG
NEWBERRY       CLOUDY    63  62  97 SW3       29.99S FOG
S. S. MARIE    CLEAR     65  63  93 W3        29.98S FOG
$$
MIZ004>006-011>014-085-211000-
CENTRAL UPPER MICHIGAN

CITY           SKY/WX    TMP DP  RH WIND       PRES   REMARKS
MANISTIQUE     CLOUDY    62  56  82 CALM      29.98F
ESCANABA       MOCLDY    70  65  84 N6        29.98F
MENOMINEE      CLEAR     68  66  93 SW5       30.01R
SAWYER-GWINN   CLOUDY    64  61  88 W3        30.01F
$$
MIZ001>003-009>011-084-211000-
WESTERN UPPER MICHIGAN

CITY           SKY/WX    TMP DP  RH WIND       PRES   REMARKS
IRON MOUNTAIN  CLOUDY    67  63  87 CALM      30.01S
HOUGHTON       CLEAR     57  53  86 NW9       30.00S
COPPER HARBOR    N/A     64  53  67 VRB6      29.98R
IRONWOOD       FOG       52  50  93 CALM      30.04R VSB 1/2
$$

ABBREVIATIONS USED IN REMARKS
   TC - TEMPERATURE IN CELSIUS
  WCI - WIND CHILL INDEX
   HX - HEAT INDEX
  VSB - VISIBILITY





USA.gov is the U.S. government's official web portal to all federal, state and local government web resources and services.